User: anonymous   Login
Location: South Tamworth Observatory
(43.8246°N, 71.3026°W)
Time: 10:52:30
(UTC-05:00)
Language:

Cosmos 1844 - Orbit

View from above orbital plane
View from above orbital plane
View from above satellite
View from above satellite

Ground track
Ground track

The orbit data is extracted from the following two-line orbital elements,

1 17973U 87041A   14353.56979503 -.00000163  00000-0 -60351-4 0  9099
2 17973 070.8993 032.6421 0029237 047.3955 059.0731 14.13962432424425
Epoch (UTC): 19 December 2014 13:40:30
Eccentricity: 0.0029237
inclination: 70.8993°
perigee height: 825 km
apogee height: 867 km
right ascension of ascending node: 32.6421°
argument of perigee: 47.3955°
revolutions per day: 14.13962432
mean anomaly at epoch: 59.0731°
orbit number at epoch: 42442

The dashed part of the orbit path shows where the satellite is in the earth's shadow,  

DLR